EHI
3 5 8 11 12 11 10 9 9 8 7 8 8 8 6 5 3 3 3 3 4 4 4 3 3 3 3 3 3 3 2 1 0 0 1 3 3 3 3 3 4 4 4
5 7 10 13 16 16 14 12 10 9 8 8 9 9 8 5 4 2 2 3 4 4 3 3 3 3 3 3 3 3 2 1 0 1 2 3 3 3 3 3 4 4 5
9 10 14 19 22 22 20 16 13 10 9 9 9 9 9 7 4 3 2 3 3 3 3 3 3 3 3 3 2 2 2 0 0 1 2 2 3 3 3 3 3 4 4
13 14 17 21 23 23 22 18 14 11 10 10 10 10 9 7 5 4 4 3 3 3 3 3 3 3 3 3 3 3 2 1 1 1 1 1 1 2 2 2 3 3 3
13 16 18 18 19 20 19 17 15 12 10 9 10 10 9 7 5 4 4 3 3 4 4 4 4 4 4 3 3 3 3 3 2 2 2 2 1 1 2 1 1 2 2
13 15 16 16 15 17 18 17 16 13 10 8 8 8 8 7 5 4 4 3 4 5 5 6 6 7 6 4 3 3 3 3 3 3 3 3 3 2 2 1 1 1 1
13 14 14 14 14 16 19 19 17 14 10 8 8 8 7 6 6 6 5 4 4 5 5 6 6 7 8 7 5 4 3 3 4 4 4 3 3 3 1 1 0 0 0
15 14 13 11 11 14 17 18 17 14 12 11 11 11 9 7 7 6 6 5 4 5 5 5 4 6 8 9 8 6 5 5 5 6 5 4 4 2 1 0 0 0 0
18 16 13 10 8 10 14 17 17 16 16 15 14 13 11 9 7 6 5 5 5 6 7 6 6 7 10 11 10 8 7 6 6 6 5 5 3 1 0 0 0 0 0
18 16 13 10 7 7 12 16 18 18 18 17 15 14 13 11 10 8 7 7 7 8 9 10 9 9 10 10 9 8 6 5 5 5 4 3 2 0 0 0 0 0 0
17 16 13 10 8 8 12 17 19 18 17 16 15 14 14 14 12 11 11 11 10 10 11 12 11 10 10 9 7 6 6 6 6 5 4 3 1 0 0 0 0 1 1
14 14 12 11 11 12 16 22 22 19 17 16 16 16 16 15 14 14 13 13 12 11 11 11 11 10 9 7 5 5 6 6 6 6 4 2 1 0 0 0 1 2 2
12 13 13 14 16 18 21 25 25 23 22 22 20 18 18 17 16 15 15 15 14 12 12 12 12 11 9 7 5 5 6 6 5 4 3 1 0 0 0 0 2 3 3
14 15 15 16 17 18 20 21 22 23 24 25 23 20 19 18 16 15 14 15 16 15 14 13 11 10 10 8 6 6 5 4 2 1 1 0 0 0 0 0 1 2 2
17 16 14 14 15 16 16 17 18 20 20 21 20 18 16 14 14 13 12 13 15 15 14 12 11 10 9 8 6 5 3 2 0 0 0 0 0 0 0 0 0 1 1
16 14 13 14 15 14 14 14 16 17 17 17 16 15 13 11 10 10 9 9 10 10 9 10 10 8 6 5 3 3 1 0 0 0 0 0 0 0 0 0 0 0 0
17 15 14 14 14 13 12 12 13 15 16 15 14 12 11 11 9 8 7 7 6 5 5 5 5 5 3 2 1 1 0 0 0 0 0 0 0 0 0 0 0 0 0
20 17 15 14 13 12 13 13 14 15 14 13 12 11 11 10 9 6 5 4 3 2 1 1 2 2 2 1 1 1 1 0 0 0 0 0 0 0 0 0 0 0 0
20 17 15 14 14 14 16 16 15 14 11 10 9 8 8 8 7 4 2 1 1 1 0 0 1 1 1 1 1 1 1 1 0 0 0 0 0 0 0 0 0 0 0
17 15 14 13 13 14 15 14 12 10 8 7 6 5 5 5 4 2 0 0 0 0 0 0 1 1 1 1 0 1 1 1 1 1 1 1 0 0 0 0 0 0 0
16 15 13 11 10 11 10 8 6 5 4 4 4 3 3 3 2 1 0 0 0 0 0 0 1 2 2 2 1 0 0 0 0 1 1 1 0 0 0 0 0 0 0
16 15 13 10 7 6 5 3 3 3 3 3 3 3 3 2 1 0 0 0 0 0 0 0 1 1 2 2 1 0 0 0 0 0 1 1 0 0 0 0 0 0 0
14 14 13 9 6 3 1 1 1 2 2 2 2 2 1 1 0 0 0 0 0 0 0 0 0 0 1 1 0 0 0 0 0 0 0 0 0 0 0 0 0 0 0
12 12 12 9 5 2 0 0 0 1 1 1 1 1 0 0 0 0 0 0 0 0 0 0 0 0 0 0 0 0 0 0 0 0 0 0 0 0 0 0 0 0 0
11 11 10 7 3 0 0 0 0 0 0 0 0 0 0 0 0 0 0 0 0 0 0 0 0 0 0 0 0 0 0 0 0 0 0 0 0 0 0 0 0 0 0
12 12 10 6 2 0 0 0 0 0 0 0 0 0 0 0 0 0 0 0 0 0 0 0 0 0 0 0 0 0 0 0 0 0 0 0 0 0 0 0 0 0 0
Wind_Speed
6 6 7 7 6 5 4 4 3 2 3 2 2 1 1 1 1 1 1 1 1 1 2 1 1 1 2 1 1 1 1 1 1 1 2 2 2 0 1 1 1 1 2
5 5 6 6 6 6 4 4 3 3 2 2 1 1 1 0 1 1 1 1 1 1 2 2 1 1 1 1 1 1 1 1 1 1 1 2 3 3 1 0 1 1 1
10 8 7 5 6 6 5 4 3 3 3 2 2 2 2 2 2 1 0 0 1 1 1 2 1 1 1 1 0 1 1 0 1 1 2 2 1 2 2 1 0 0 1
9 8 7 7 7 6 6 5 4 3 2 3 3 3 2 1 1 1 0 0 0 1 1 1 1 1 1 1 0 1 1 2 0 1 0 1 2 1 1 3 2 1 0
11 10 9 9 8 7 6 5 4 3 3 3 3 3 2 1 0 1 1 1 1 1 1 1 1 1 1 1 1 1 1 1 1 0 1 1 1 1 2 1 2 2 1
10 10 9 8 7 6 5 5 4 3 3 3 3 3 3 2 2 2 1 1 1 1 1 1 1 1 1 0 0 1 1 1 1 1 1 1 0 0 1 1 1 1 2
9 9 9 9 8 7 6 6 5 4 3 3 3 2 2 2 2 2 1 1 0 1 1 1 0 0 0 1 1 1 1 1 1 0 0 0 0 1 1 1 1 0 2
9 9 10 9 9 8 7 6 6 4 4 3 3 2 2 2 1 1 1 1 1 1 1 0 0 0 1 1 1 1 1 1 1 1 1 0 0 0 1 2 2 1 2
9 9 8 8 8 8 7 8 7 5 4 4 3 2 2 2 1 1 1 0 0 0 1 0 1 0 1 1 1 1 1 1 1 1 1 1 1 1 0 1 2 3 1
9 8 8 8 7 7 7 7 7 6 5 4 3 3 2 2 1 1 1 0 0 1 1 1 1 1 1 1 1 1 1 1 1 1 1 1 1 1 1 1 1 1 3
9 9 8 7 6 5 5 5 6 5 4 4 3 3 2 1 1 1 0 0 0 0 0 0 1 1 1 1 1 1 1 1 1 1 1 1 1 1 1 1 1 1 1
7 8 7 6 5 5 4 5 5 4 4 3 3 2 2 1 1 0 0 0 1 1 1 1 1 1 1 0 1 0 0 0 0 1 1 1 1 1 1 1 1 0 0
6 6 6 6 5 5 4 4 4 4 3 3 3 2 2 2 1 1 0 1 1 1 1 1 1 0 0 0 0 1 1 1 1 1 0 1 0 1 1 0 0 0 0
7 7 6 5 5 5 4 4 4 4 4 4 4 3 3 2 1 1 1 1 1 1 1 1 1 1 0 0 0 0 1 0 1 1 1 1 1 1 1 0 1 1 0
7 7 6 5 5 5 4 4 4 4 5 5 4 3 2 2 2 2 1 2 1 1 1 1 0 1 0 0 0 0 0 0 1 1 1 1 1 0 0 1 1 1 0
8 7 7 7 6 5 4 4 4 4 5 5 4 3 2 2 2 2 2 2 2 2 2 2 1 2 1 3 2 1 0 0 0 1 2 2 1 2 2 2 1 1 1
9 8 7 6 6 6 6 5 4 4 5 4 3 3 3 3 2 2 2 2 2 2 2 2 2 1 2 4 3 2 1 0 1 1 1 2 2 1 1 2 3 2 2
9 8 7 6 6 6 6 5 5 5 4 4 3 3 3 3 2 2 2 1 1 1 1 1 1 1 3 4 4 3 2 1 1 1 1 0 1 2 1 1 2 3 3
9 7 7 7 7 7 7 7 5 5 4 3 3 3 3 3 2 1 1 1 1 1 1 1 1 2 3 5 5 3 2 1 2 2 1 1 1 3 3 1 2 3 4
7 7 6 7 7 6 7 7 6 5 4 3 3 2 3 2 2 1 0 0 0 1 1 2 2 2 2 5 6 4 1 2 2 3 3 3 3 4 3 1 1 3 4
8 8 7 6 6 6 7 7 5 4 3 2 2 2 2 2 2 1 1 1 1 2 2 2 2 2 2 4 5 4 2 1 1 2 3 3 6 5 4 2 2 5 4
8 8 7 6 5 6 7 6 4 3 3 4 3 2 1 1 2 2 1 2 2 2 2 2 2 2 3 3 4 4 3 2 0 2 3 3 6 6 6 4 4 5 3
7 6 7 6 4 4 6 6 3 4 4 4 2 1 1 1 1 2 2 1 2 1 1 1 1 2 2 3 5 5 4 3 1 2 5 6 7 6 4 5 6 4 2
7 7 7 7 5 4 5 5 4 4 5 3 2 1 1 1 2 2 2 2 1 1 1 1 1 2 2 2 3 3 3 4 3 3 5 7 6 5 5 5 4 2 1
6 7 7 7 6 4 4 4 4 5 4 3 2 1 1 1 1 1 1 1 1 2 2 1 1 0 2 3 3 1 2 2 2 2 3 3 4 4 4 4 3 3 2
7 7 7 7 6 5 4 3 3 5 5 3 2 1 1 1 1 1 1 2 1 0 1 2 2 2 2 3 3 3 3 4 3 2 2 2 3 3 3 3 3 3 3
Wind_Direction
175 159 154 145 140 134 124 123 117 116 105 99 93 83 63 53 69 89 100 111 107 106 111 108 78 74 87 92 78 71 49 17 42 55 9 359 7 47 226 193 163 182 201
168 165 165 160 151 145 140 134 138 137 130 141 144 140 143 157 141 110 74 94 101 100 115 118 115 103 88 61 49 70 47 358 44 100 74 1 351 350 359 26 165 191 186
173 173 171 163 148 147 148 142 148 141 142 131 113 101 62 37 32 28 11 16 144 140 106 122 125 114 106 106 55 91 100 29 353 83 131 138 238 308 331 324 335 139 147
171 165 157 157 158 160 154 145 143 144 145 128 126 131 132 147 206 199 174 7 31 70 92 105 114 103 88 89 34 98 116 120 19 341 36 163 167 161 307 328 339 320 206
170 164 164 166 167 164 160 156 145 146 140 123 128 130 131 153 126 82 60 28 19 41 61 76 100 103 90 93 64 66 81 101 117 119 318 18 37 116 153 282 324 345 326
166 167 167 161 163 165 161 156 146 147 144 131 128 131 134 121 99 83 85 38 11 11 13 61 85 109 92 79 123 99 80 79 88 97 89 114 141 215 159 191 263 298 303
163 164 163 163 165 168 168 160 153 154 154 143 142 145 141 129 135 149 152 132 39 1 325 5 59 92 114 98 90 85 62 63 79 69 94 128 173 177 163 156 188 305 308
166 168 169 170 169 167 165 161 161 163 163 154 161 143 133 133 135 151 158 178 205 237 285 310 59 116 103 86 86 71 55 70 69 30 31 35 339 125 152 167 153 87 339
168 168 167 168 169 169 170 168 167 167 172 168 154 139 138 135 143 155 144 185 272 273 325 343 69 77 78 79 90 70 32 61 54 13 29 29 357 38 64 138 153 155 175
163 167 172 170 172 175 173 168 168 172 176 174 169 155 161 168 170 144 149 150 337 358 28 33 57 64 64 68 70 39 9 47 16 25 41 21 21 29 38 56 73 131 162
168 169 168 169 167 166 167 164 167 167 171 172 171 165 169 163 135 130 184 175 82 60 57 90 111 91 68 53 66 42 39 47 16 8 37 15 40 43 25 35 45 54 131
160 158 156 152 149 151 155 160 163 167 174 164 158 155 145 120 93 16 267 125 80 40 49 71 101 86 54 59 100 91 342 160 199 311 21 346 33 41 8 47 44 14 176
146 144 147 147 147 146 146 147 148 153 150 143 144 141 135 129 142 210 307 75 86 50 48 81 103 110 203 149 181 198 229 225 233 236 199 247 104 326 309 353 11 295 346
149 146 148 149 143 140 136 132 136 143 137 128 127 128 134 141 149 124 65 56 73 59 46 97 152 170 226 194 233 222 218 255 275 249 217 216 195 224 247 267 253 257 328
147 148 142 138 133 127 124 128 126 119 121 118 116 123 137 124 109 89 59 37 37 32 10 33 329 290 308 297 165 249 11 268 291 301 290 259 207 139 199 249 232 204 238
152 149 142 140 141 136 133 132 128 125 119 121 128 132 117 99 91 74 52 42 29 16 21 25 19 359 352 12 32 81 41 358 292 288 298 301 320 337 331 321 274 202 208
158 154 153 153 151 149 146 145 137 125 119 121 122 121 112 96 83 70 56 43 27 23 17 16 22 354 349 13 24 45 97 19 294 281 299 314 338 349 339 327 335 320 288
158 156 155 147 146 145 136 129 122 121 117 114 113 114 111 103 94 80 64 33 18 20 15 358 350 357 3 24 29 40 48 14 322 276 248 283 308 327 340 335 341 324 306
156 157 153 141 132 132 131 123 118 118 116 117 117 118 119 115 108 90 60 9 31 20 3 350 17 36 4 18 29 48 40 10 335 319 334 312 291 316 334 352 321 316 311
138 136 131 121 123 130 130 125 125 124 132 137 137 135 129 129 136 140 102 7 63 24 19 29 30 41 22 22 33 43 54 14 335 332 331 328 322 319 326 284 273 290 291
128 125 122 123 130 130 125 124 127 143 153 129 118 118 125 140 145 118 80 70 53 42 35 35 11 23 21 13 25 37 54 9 323 323 320 320 332 325 317 291 256 264 276
123 125 124 124 123 125 128 131 142 153 127 114 111 116 125 140 108 101 77 73 70 55 34 27 5 358 1 12 4 14 19 15 336 302 307 315 324 321 315 301 290 295 294
130 126 125 119 110 117 127 132 142 130 117 111 118 121 97 73 92 103 91 69 66 70 45 39 4 340 348 349 352 350 346 349 345 307 313 318 318 316 316 312 311 314 313
131 127 124 123 120 119 119 128 131 122 113 112 110 99 85 54 53 76 86 91 92 84 61 39 342 326 337 341 341 339 344 351 353 340 327 328 331 335 327 328 329 322 307
130 128 133 132 129 127 122 121 120 117 115 115 114 93 78 88 63 66 99 134 177 176 168 205 220 237 307 296 306 331 327 324 320 335 347 356 355 355 349 340 332 330 337
131 130 134 135 139 138 132 130 132 132 130 128 134 144 138 116 108 111 48 30 62 347 184 193 189 229 251 297 326 332 335 339 359 46 13 349 340 333 331 330 327 329 323